Regional Weather Roundup
Issued by NWS Mobile, AL

Home | Current Version | Previous Version | Text Only | Print | Product List | Glossary On
Versions: 1 2 3 4 5 6 7 8 9 10 11 12 13 14 15 16 17 18 19 20 21 22 23 24 25 26 27 28 29 30 31 32 33 34 35 36 37 38 39 40 41 42 43 44 45 46 47 48 49 50
000
ASUS44 KMOB 241512
RWRMOB
REGIONAL WEATHER ROUNDUP
NATIONAL WEATHER SERVICE MOBILE AL
1000 AM CDT THU MAY 24 2018

NOTE: "FAIR" INDICATES FEW OR NO CLOUDS BELOW 12,000 FEET WITH NO
      SIGNIFICANT WEATHER AND/OR OBSTRUCTIONS TO VISIBILITY.

  * THESE STATIONS ARE PART OF THE UNIVERSITY OF SOUTH ALABAMA
    MESONET AND ARE NOT UNDER NWS OR FAA QUALITY CONTROL.

ALZ061>064-241600-
COASTAL ALABAMA

CITY           SKY/WX    TMP DP  RH WIND       PRES   REMARKS
MOBILE REG APT FAIR      82  70  66 CALM      30.11S
BROOKLEY FIELD FAIR      82  74  76 NE6       30.11S
USA CAMPUS*    NOT AVBL
DOG RIVER*       N/A     79  72  78 CALM        N/A


CITY           SKY/WX    TMP DP  RH WIND       PRES   REMARKS
GULF SHORES    FAIR      81  72  74 CALM      30.09F

$$

ALZ051>060-241600-
INTERIOR SOUTHWEST AND SOUTH CENTRAL ALABAMA

CITY           SKY/WX    TMP DP  RH WIND       PRES   REMARKS
GREENVILLE     FAIR      84  69  60 CALM      30.09S
EVERGREEN      FAIR      79  72  79 SW5       30.10F
ATMORE*        NOT AVBL
ANDALUSIA/OPP  FAIR      85  69  58 CALM      30.09S
ANDALUSIA*       N/A     79  70  73 N5        30.11S
FLORALA APT    FAIR      81  68  64 CALM      30.11S
FLORALA*         N/A     82  70  65 CALM      30.82F

$$

FLZ001>006-241600-
WESTERN FLORIDA PANHANDLE

CITY           SKY/WX    TMP DP  RH WIND       PRES   REMARKS
PENSACOLA      FAIR      82  69  64 N3        30.09F
NAS PENSACOLA  FAIR      82  71  69 SE6       30.09S
MILTON         FAIR      82  71  69 N6        30.09F
WHTNG S FIELD  FAIR      83  71  67 VRB3      30.09F


CITY           SKY/WX    TMP DP  RH WIND       PRES   REMARKS
JAY*             N/A     79  68  69 NW3         N/A
DUKE FIELD     MOSUNNY   80  69  68 CALM      30.09F
CRESTVIEW      FAIR      81  68  64 CALM      30.10F
VALPARAISO     PTSUNNY   83  71  68 NW6       30.08F
DESTIN         FAIR      83  70  64 NE5       30.09S

$$

MSZ076-079-241600-
INTERIOR SOUTHEAST MISSISSIPPI

CITY           SKY/WX    TMP DP  RH WIND       PRES   REMARKS
LEAKESVILLE*   NOT AVBL
AGRICOLA*        N/A     81  72  74 N3        30.10S

$$

MARINE OBSERVATIONS

STATION/POSITION TIME  TEMP    WIND        PRES    WAVE
                       AIR SEA DIR/SP/G            HT/PER
                 (UTC) (F)     (DEG/KT/KT) (MB)    (FT/S)
PETIT BOIS ISLND 1448   81      80/  8/ 10 1019.8F
GRAND BAY        1345   78      80/  6     1020.0S
KATRINA CUT      1430   79      80/  6     1019.6R
CEDAR POINT      1430   79      40/  6     1019.3S
E DAUPHIN ISLAND 1500   79      40/  5/  6 1019.1F
MIDDLE BAY LIGHT 1430   80      60/  3     1019.6R
STATE DOCKS      1442   83 82              1019.3S
MEAHER PARK      1430   77     310/  2     1019.6R
WEEKS BAY        1345   79                 1019.0S
FORT MORGAN      1448   80      40/  6/  7   N/A
12 S ORANGE BCH  1450   79      70/  6/  8 1019.0F   3/ 6
PENSACOLA BAY    1442   80 83   80/  2/  4 1019.3F
64 S DAUPHIN ISL 1450      82  110/  4/  6 1018.9F   3/ 7
67 S FORT MORGAN 1430   81                 1018.6F

$$

SELECTED LOCATIONS ACROSS THE REGION

CITY           SKY/WX    TMP DP  RH WIND       PRES   REMARKS
NEW ORLEANS    PTSUNNY   85  74  69 CALM      30.08S
GULFPORT       FAIR      82  72  71 CALM      30.08F
PASCAGOULA AP  FAIR      83  70  64 CALM      30.09S
PASCAGOULA*      N/A     90  75  62 CALM      30.09S HX 100
HATTIESBURG    FAIR      81  71  71 CALM      30.11F
LAUREL         FAIR      81  72  74 VRB3      30.11F
MERIDIAN       FAIR      83  69  62 NW6       30.12F
JACKSON        PTSUNNY   76  71  85 N7        30.12F
MONTGOMERY     FAIR      81  72  74 N5        30.10S
TROY           CLOUDY    72  71  97 CALM      30.12S FOG
ASHFORD*         N/A     79  70  73 N5        30.11S
DOTHAN         FAIR      80  68  66 VRB3      30.14R
PANAMA CITY    LGT RAIN  82  72  71 S10       30.09R

$$




USA.gov is the U.S. government's official web portal to all federal, state and local government web resources and services.